Location: *
(51.2167°N, 10.0667°E)
Time: 15:24:41
(UTC+00:00)

Cosmos 1536 - Pass Details

Date: 12 December 2019
Orbit: 540 x 559 km, 82.5° (Epoch: 19 January)

Event Time Altitude Azimuth Distance (km) Brightness Sun altitude
Rises 16:36:16 0° 348° (NNW) 2,740 6.3 -12.3°
Reaches altitude 10° 16:38:27 10° 347° (NNW) 1,837 5.4 -12.6°
Maximum altitude 16:42:29 79° 261° (W) 565 2.9 -13.2°
Drops below altitude 10° 16:46:28 10° 176° (S) 1,810 5.7 -13.8°
Sets 16:48:36 0° 175° (S) 2,695 6.5 -14.1°
